Regional Weather Roundup
Issued by NWS Charleston, SC

Current Version | Previous Version | Text Only | Print | Product List | Glossary On
Versions: 1 2 3 4 5 6 7 8 9 10 11 12 13 14 15 16 17 18 19 20 21 22 23 24 25 26 27 28 29 30 31 32 33 34 35 36 37 38 39 40 41 42 43 44 45 46 47 48 49 50
000
ASUS42 KCHS 161127
RWRCHS

REGIONAL WEATHER ROUNDUP
NATIONAL WEATHER SERVICE CHARLESTON SC
600 AM EST MON JAN 16 2017

NOTE: "FAIR" INDICATES FEW OR NO CLOUDS BELOW 12,000 FEET WITH NO
SIGNIFICANT WEATHER AND/OR OBSTRUCTIONS TO VISIBILITY.

NOT ALL STATIONS ARE QUALITY CONTROLLED. USE DATA WITH CAUTION...
ESPECIALLY DEWPOINT OBSERVATIONS.

SCZ027-030-031-034>040-042>050-161200-
...SOUTHEAST SOUTH CAROLINA...

CITY           SKY/WX    TMP DP  RH WIND       PRES   REMARKS
N CHARLESTON   FOG       57  56  96 NE5       30.30R VSB 1/4
WATERFRONT PRK   N/A     57  57 100 VRB3      30.29R
MOUNT PLEASANT LGT RAIN  57  57 100 CALM      30.31R VSB 1/4
JOHNS ISLAND   FOG       59  59 100 CALM      30.30S VSB<1/4
PINOPOLIS      NOT AVBL
MONCKS CORNER  LGT RAIN  55  54  94 NE5       30.32R VSB 1/4
SUMMERVILLE    FOG      N/A N/A N/A CALM      30.32R VSB 1/4
BEAUFORT MCAS  FOG       52  51  97 N3        30.29R VSB 1/4
BEAUFORT ARPT  PTSUNNY   54  54 100 NE5       30.29R FOG
HILTON HEAD IS NOT AVBL
WALTERBORO     FOG       54 N/A N/A CALM      30.32R VSB 1/4
ALLENDALE      FOG       50  50 100 CALM      30.29R VSB 3/4

...SOUTHERN MIDLANDS AND PEE DEE...

CITY           SKY/WX    TMP DP  RH WIND       PRES   REMARKS
GEORGETOWN     FOG       52  52 100 CALM      30.33S VSB 3/4
KINGSTREE      FOG       54  52  94 E3        30.32R VSB 1/2
ORANGEBURG     FOG       52  52 100 E5        30.31R VSB 1/4
BARNWELL       FOG       52  52 100 CALM      30.30R VSB 3/4
AIKEN          FOG       45  45 100 CALM      30.33R VSB 1/4
MANNING        FOG       54  52  94 CALM      30.32R VSB 3/4
COLUMBIA       FOG       55  54  96 SE6       30.30R VSB 3/4
SUMTER         CLOUDY    54  54 100 E5        30.30R FOG
FLORENCE       FOG       50  50 100 NE6       30.33S VSB 3/4
MYRTLE BEACH   NOT AVBL
N MYRTLE BEACH CLOUDY    51  50  96 NE7       30.34R

$$

GAZ063-065-086>088-099>101-113>116-118-119-134>141-150-161200-
...SOUTHEAST GEORGIA...

CITY           SKY/WX    TMP DP  RH WIND       PRES   REMARKS
SAVANNAH ARPT  PTCLDY    54  52  93 CALM      30.28R
HUNTER AAF     PTCLDY    55  55 100 CALM      30.25S
FORT STEWART   MOCLDY    54  52  94 CALM      30.25R
STATESBORO     FOG       50  50 100 CALM      30.29R VSB 1/4
SYLVANIA       CLOUDY   N/A N/A N/A CALM      30.30R
CLAXTON        PTSUNNY  N/A N/A N/A CALM      30.29R HAZE

...CSRA...CENTRAL AND FAR SOUTHEAST GEORGIA...

CITY           SKY/WX    TMP DP  RH WIND       PRES   REMARKS
THOMSON        MOCLDY    47  47 100 CALM      30.33R
AUGUSTA-BUSH   MOCLDY    47  45  93 CALM      30.29R FOG
AUGUSTA-DANIEL PTCLDY    54  50  86 E3        30.29R
SWAINSBORO     FAIR      54  54 100 MISG      30.29R
VIDALIA        PTCLDY    54  54 100 E5        30.27S
EASTMAN        CLOUDY    55  55 100 CALM      30.30R
HAZLEHURST     FAIR      58  58 100 CALM      30.27R
ALMA           FOG       51  51 100 CALM      30.27R VSB 1
WAYCROSS       FOG       54  54 100 CALM      30.27R VSB 1/2
JESUP          CLOUDY    54  52  94 CALM      30.28R FOG
BAXLEY         FAIR      54  54 100 CALM      30.27S FOG
BRUNSWICK      MOCLDY    54  54 100 CALM      30.28S FOG
SAINT SIMONS   CLOUDY    60  57  89 CALM      30.26S

$$

SCZ027-028-034-036>038-045-046-048>050-GAZ119-141-161200-
...LAKE AND SUPPLEMENTAL COASTAL OBSERVATIONS...

STATION/POSITION TIME  TEMP    WIND        PRES    WAVE   SWELL
                       AIR SEA DIR/SP/G            HT/PER HT/PER/DIR
                 (UTC) (F)     (DEG/KT/KT) (MB)    (FT/S) (FT/S/D)
WINYAH BAY       1030   52      50/  9     1026.0S
LAKE MURRAY      1120   55      80/  4/  4 1026.1R
ACE BASIN NERRS  1045   53      20/  2     1026.0R
FORT PULASKI     1100   58 54   90/  4/  5 1025.4
SAPELO ISLAND    1100   56        CALM     1025.0

$$

ANZ835-935-AMZ111-154-330-350-352-354-370-450-454-472-161200-
...C-MAN AND BUOY OBSERVATIONS...

STATION/POSITION TIME  TEMP    WIND        PRES    WAVE   SWELL
                       AIR SEA DIR/SP/G            HT/PER HT/PER/DIR
                 (UTC) (F)     (DEG/KT/KT) (MB)    (FT/S) (FT/S/D)
BUOY 41004       1050   69 71   40/  6/  8 1025.1R   3/11   3/110/11
BUOY 41008       1050   60 59   50/  4/  4 1025.1R   2/10   2/110/10
FOLLY BEACH CMAN 1100   56      20/  6/  7 1026.4R
CAPERS NEARSHORE 1108   53 54   40/ 12/ 16 1026.1R
FRIPP NEARSHORE  1108   56 56   60/ 10/ 12 1025.5R


STATION/POSITION TIME  TEMP    WIND        PRES    WAVE   SWELL
                       AIR SEA DIR/SP/G            HT/PER HT/PER/DIR
                 (UTC) (F)     (DEG/KT/KT) (MB)    (FT/S) (FT/S/D)
5E ST. MARYS GA  1100      61                N/A     2/11   2/100/11
FRYING PAN BUOY  1110   64 70   40/ 16/ 19 1026.5
BUOY 41025       1050   57 74   30/ 19/ 23 1027.6R   5/ 5   2/100/10
CAPE LOOKOUT NC  1100   46      10/ 13/ 17 1028.6R
BUOY 41002       1050   68 71  120/  2/  4 1026.3R   4/11   3/ 60/11
BUOY 41010       NOT AVBL
ST AUGUSTINE FL  1100   64 64  330/  2/  3 1025.2R


$$




USA.gov is the U.S. government's official web portal to all federal, state and local government web resources and services.